This is the latest recevied weather packets stored in our database for station/object GW4288. If no packets are shown the sender has not sent any weather packets the latest 10 day(s).
| Time | Temp. | Humidity | Pressure | Rain* | Wind** | Luminosity | Snow |
|---|---|---|---|---|---|---|---|
| 1788263284 | 22.78° C | 58% | 1021.3 hPa | 0 mm | - | 435 W/m² | - |
| 1788263162 | 22.78° C | 57% | 1021.6 hPa | 0 mm | - | 92 W/m² | - |
| 1788263044 | 22.22° C | 59% | 1021.4 hPa | 0 mm | - | 450 W/m² | - |
| 1788262926 | 22.22° C | 57% | 1021.6 hPa | 0 mm | - | 455 W/m² | - |
| 1788262805 | 22.22° C | 58% | 1021.7 hPa | 0 mm | - | 472 W/m² | - |
| 1788262683 | 21.67° C | 59% | 1021.5 hPa | 0 mm | - | 478 W/m² | - |
| 1788262565 | 21.11° C | 61% | 1021.4 hPa | 0 mm | - | 466 W/m² | - |
| 1788262443 | 21.67° C | 61% | 1021.5 hPa | 0 mm | - | 80 W/m² | - |
| 1788262324 | 22.22° C | 63% | 1021.5 hPa | 0 mm | - | 74 W/m² | - |
| 1788262217 | 22.22° C | 62% | 1021.4 hPa | 0 mm | - | 112 W/m² | - |
| 1788262159 | 22.22° C | 60% | 1021.5 hPa | 0 mm | - | 508 W/m² | - |
| 1788261964 | 21.67° C | 60% | 1021.7 hPa | 0 mm | - | 509 W/m² | - |
| 1788261843 | 21.67° C | 61% | 1021.5 hPa | 0 mm | - | 562 W/m² | - |
| 1788261725 | 22.22° C | 60% | 1021.5 hPa | 0 mm | - | 520 W/m² | - |
| 1788261605 | 22.22° C | 60% | 1021.4 hPa | 0 mm | - | 310 W/m² | - |
| 1788261483 | 22.22° C | 62% | 1021.6 hPa | 0 mm | - | 544 W/m² | - |
| 1788261364 | 22.78° C | 59% | 1021.6 hPa | 0 mm | - | 468 W/m² | - |
| 1788261242 | 23.33° C | 60% | 1021.6 hPa | 0 mm | - | 488 W/m² | - |
| 1788261124 | 22.78° C | 61% | 1021.5 hPa | 0 mm | - | 519 W/m² | - |
| 1788261018 | 22.78° C | 60% | 1021.7 hPa | 0 mm | - | 520 W/m² | - |
| 1788260884 | 21.67° C | 64% | 1021.6 hPa | 0 mm | - | 520 W/m² | - |
| 1788260764 | 21.67° C | 63% | 1021.6 hPa | 0 mm | - | 527 W/m² | - |
| 1788260643 | 21.67° C | 62% | 1021.3 hPa | 0 mm | - | 534 W/m² | - |
| 1788260524 | 21.67° C | 63% | 1021.6 hPa | 0 mm | - | 498 W/m² | - |
| 1788260405 | 21.11° C | 63% | 1021.6 hPa | 0 mm | - | 506 W/m² | - |
* Rain latest hour (hover to see other rain measurements)
** Current wind speed in m/s (hover to see current wind gust speed)